Nashua, NH

11:57 PM EDT on September 29, 2016 (GMT -0400)
Boire

Weather History for KASH - September, 2013

Change the Weather History Date:

Sunday, September 15, 2013

  Actual Average Record
Temperature  
Mean Temperature 56 °F -  
Max Temperature 70 °F 71 °F 87 °F (1993)
Min Temperature 43 °F 48 °F 30 °F (1975)
Degree Days  
Heating Degree Days 8    
Growing Degree Days 6 (Base 50)    
Moisture  
Dew Point 47 °F    
Average Humidity 70    
Maximum Humidity 97    
Minimum Humidity 42    
Precipitation  
Precipitation 0.00 in - - ()
Sea Level Pressure  
Sea Level Pressure 30.84 in    
Wind  
Wind Speed 1 mph (WNW)    
Max Wind Speed 7 mph    
Max Gust Speed -    
Visibility 10 miles    
Events      
Averages and records for this station are not official NWS values.
T = Trace of Precipitation, MM = Missing Value Source: NWS Daily Summary

Daily Weather History Graph

Daily Weather History Graph

Search for Another Location

Airport or City:

Trip Planner

Search our weather history database for the weather conditions in past years. The results will help you decide how hot, cold, wet, or windy it might be!

Date:

Astronomy

Sep. 15, 2013 Rise Set
Actual Time 6:26 AM EDT 6:55 PM EDT
Civil Twilight 5:57 AM EDT 7:23 PM EDT
Nautical Twilight 5:24 AM EDT 7:57 PM EDT
Astronomical Twilight 4:49 AM EDT 8:31 PM EDT
Moon 4:24 PM EDT (9/15) 1:55 AM EDT (9/15)
Length of Visible Light 13h 26m
Length of Day
12h 29m
Waxing Gibbous, 82% of the Moon is Illuminated
Sep 15
Waxing Gibbous
Sep 19
Full
Sep 26
Last Quarter
Oct 4
New
Oct 11
First Quarter

Hourly Weather History & Observations

Time (EDT) Temp. Dew Point Humidity Pressure Visibility Wind Dir Wind Speed Gust Speed Precip Events Conditions
12:51 AM 48.9 °F 47.8 °F 96% 30.82 in 10.0 mi Calm Calm - N/A   Clear
1:51 AM 48.9 °F 46.9 °F 93% 30.82 in 10.0 mi Calm Calm - N/A   Clear
2:51 AM 46.9 °F 45.9 °F 96% 30.83 in 10.0 mi Calm Calm - N/A   Clear
3:51 AM 45.9 °F 45.0 °F 97% 30.84 in 10.0 mi Calm Calm - N/A   Clear
4:51 AM 45.9 °F 45.0 °F 97% 30.86 in 10.0 mi Calm Calm - N/A   Clear
5:51 AM 45.0 °F 43.9 °F 96% 30.87 in 10.0 mi Calm Calm - N/A   Clear
6:51 AM 43.9 °F 43.0 °F 97% 30.89 in 10.0 mi Calm Calm - N/A   Clear
7:51 AM 47.8 °F 45.9 °F 93% 30.89 in 10.0 mi Calm Calm - N/A   Clear
8:51 AM 54.9 °F 50.0 °F 84% 30.90 in 10.0 mi Calm Calm - N/A   Clear
9:51 AM 61.0 °F 46.9 °F 60% 30.90 in 10.0 mi Calm Calm - N/A   Clear
10:51 AM 63.0 °F 47.8 °F 58% 30.90 in 10.0 mi Calm Calm - N/A   Clear
11:51 AM 66.9 °F 43.9 °F 43% 30.88 in 10.0 mi Variable 4.6 mph - N/A   Clear
12:51 PM 68.0 °F 43.9 °F 42% 30.87 in 10.0 mi Variable 3.5 mph - N/A   Clear
1:51 PM 68.9 °F 45.0 °F 42% 30.85 in 10.0 mi Variable 3.5 mph - N/A   Clear
2:51 PM 68.9 °F 45.0 °F 42% 30.83 in 10.0 mi Variable 3.5 mph - N/A   Clear
3:51 PM 70.0 °F 45.9 °F 42% 30.81 in 10.0 mi Calm Calm - N/A   Clear
4:51 PM 70.9 °F 46.9 °F 42% 30.80 in 10.0 mi NW 6.9 mph - N/A   Clear
5:51 PM 68.9 °F 47.8 °F 47% 30.80 in 10.0 mi Calm Calm - N/A   Clear
6:51 PM 63.9 °F 50.0 °F 61% 30.80 in 10.0 mi Calm Calm - N/A   Clear
7:51 PM 61.9 °F 50.0 °F 65% 30.81 in 10.0 mi WSW 4.6 mph - N/A   Clear
8:51 PM 61.0 °F 50.0 °F 67% 30.80 in 10.0 mi Calm Calm - N/A   Clear
9:51 PM 59.9 °F 50.9 °F 72% 30.80 in 10.0 mi NW 4.6 mph - N/A   Clear
10:51 PM 57.9 °F 50.9 °F 77% 30.80 in 10.0 mi Calm Calm - N/A   Clear
11:51 PM 56.8 °F 50.9 °F 80% 30.78 in 10.0 mi Calm Calm - N/A   Clear